[[{"header":{"parameterUnit":"m.s-1","parameterCategory":1,"la1":30.2991,"la2":30.254,"lo1":-89.0895,"lo2":-89.0444,"dy":0.0017,"dx":0.0017,"nx":28,"ny":28,"refTime":"2024-12-13T03:00:00:Z","depth":0,"parameterNumber":2,"parameterNumberName":"U-component_of_WINDS"},"data":[0,0,0,0,0,0,0,0,0,0,0,0,0,0,0,0,0,0,0,0,0,0,0,0,0,0,0,0,0,0,0,0,0,0,0,0,0,0,0,0,0,0,0,0,0,0,0,0,0,0,0,0,0,0,0,0,0,0,-4.3375,-4.3376,0,-4.3451,-4.3452,-4.3453,-4.3301,-4.3296,-4.3291,-4.3286,-4.3367,-4.3373,-4.338,0,0,0,0,0,0,0,0,0,0,0,0,0,-4.31,-4.3106,-4.3375,-4.3376,-4.3377,-4.3451,-4.3452,-4.3453,-4.3302,-4.3296,-4.329,-4.3284,-4.3364,-4.3372,-4.338,0,0,0,0,0,0,0,0,0,0,0,0,0,-4.3203,-4.3108,-4.3375,-4.331,-4.3305,-4.3451,-4.3452,-4.3453,-4.3303,-4.3295,-4.3288,-4.3281,-4.3362,-4.3372,-4.3382,-4.3594,0,0,-4.3413,-4.3417,0,0,0,0,0,0,0,0,-4.3197,-4.3213,-4.3319,-4.3315,-4.331,-4.3359,-4.3384,-4.35,-4.3305,-4.3304,-4.3286,-4.3277,-4.337,-4.3379,-4.341,-4.3598,-4.3601,-4.3414,-4.342,-4.3424,-4.3427,0,0,0,0,0,0,0,-4.319,-4.3209,-4.3405,-4.3321,-4.3315,-4.3278,-4.3284,-4.3406,-4.3378,-4.3303,-4.3293,-4.3304,-4.3366,-4.34,-4.3411,-4.3602,-4.3413,-4.3422,-4.3429,-4.3433,-4.3967,-4.3975,0,0,0,0,0,0,-4.3191,-4.3204,-4.3403,-4.3407,-4.3234,-4.3289,-4.3296,-4.3351,-4.3376,-4.3373,-4.331,-4.3296,-4.3387,-4.3399,-4.3413,-4.3663,-4.3424,-4.3434,-4.3439,-4.3959,-4.3969,-4.3978,0,0,0,0,0,0,-4.3185,-4.321,-4.34,-4.3303,-4.3324,-4.3302,-4.3364,-4.3356,-4.339,-4.3381,-4.3376,-4.335,-4.3381,-4.3399,-4.355,-4.3664,-4.3438,-4.3447,-4.395,-4.3962,-4.3973,-4.4166,0,0,0,0,0,0,-4.3178,-4.3209,-4.329,-4.3306,-4.333,-4.3536,-4.3371,-4.3363,-4.3408,-4.3391,-4.3417,-4.3415,-4.3377,-4.3535,-4.356,-4.3674,-4.3455,-4.3939,-4.3955,-4.3969,-4.4149,-4.4183,-4.4212,0,0,0,0,0,-4.3169,-4.3341,-4.3294,-4.3319,-4.343,-4.3542,-4.3556,-4.3509,-4.3417,-4.3498,-4.3492,-4.3414,-4.3647,-4.3552,-4.3578,-4.3697,-4.3932,-4.3951,-4.3968,-4.4135,-4.4176,-4.4211,0,0,0,0,0,0,-4.3341,-4.3342,-4.329,-4.3473,-4.3509,-4.3517,-4.3617,-4.3554,-4.3617,-4.3598,-4.3537,-4.3544,-4.3708,-4.3717,-4.3611,-4.3903,-4.3774,-4.3798,-4.3892,-4.3931,-4.3962,-4.3957,-4.3464,0,0,0,0,0,-4.34,-4.349,-4.3487,-4.3649,-4.3669,-4.364,-4.3688,-4.3648,-4.3682,-4.3697,-4.3702,-4.374,-4.382,-4.3876,-4.395,-4.4149,-4.4152,-4.4243,-4.4274,-4.43,-4.4323,-4.4428,-4.4468,-4.4037,-4.4037,-4.4037,0,0,-4.3523,-4.3535,-4.3596,-4.3683,-4.3706,-4.3802,-4.3654,-4.3762,-4.3833,-4.3713,-4.3856,-4.3861,-4.3899,-4.4075,-4.4152,-4.4087,-4.4442,-4.4323,-4.4344,-4.4353,-4.4451,-4.4492,-4.4528,-4.405,-4.4048,-4.4046,0,0,-4.3796,-4.3815,-4.3951,-4.3976,-4.4012,-4.3991,-4.4024,-4.4042,-4.404,-4.4182,-4.4095,-4.4177,-4.4319,-4.4349,-4.4383,-4.4666,-4.4597,-4.4692,-4.4857,-4.496,-4.4994,-4.5024,-4.5126,-4.5163,-4.4714,-4.4715,-4.4715,0,-4.3946,-4.4086,-4.4029,-4.4143,-4.4184,-4.4078,-4.4216,-4.4244,-4.4303,-4.4334,-4.426,-4.4434,-4.4452,-4.4633,-4.4702,-4.4733,-4.4769,-4.469,-4.4994,-4.5023,-4.505,-4.5146,-4.5185,-4.4726,-4.4725,-4.4724,-4.4722,0,-4.4267,-4.4366,-4.4472,-4.453,-4.4582,-4.4708,-4.467,-4.473,-4.4685,-4.4673,-4.4818,-4.4835,-4.4911,-4.4951,-4.4909,-4.5126,-4.5085,-4.5004,-4.4873,-4.5104,-4.5193,-4.5229,-4.4742,-4.4738,-4.4735,-4.4732,0,0,-4.4654,-4.4677,-4.4717,-4.4742,-4.4773,-4.4849,-4.4969,-4.5041,-4.5094,-4.5138,-4.5238,-4.5359,-4.5283,-4.5322,-4.5281,-4.5372,-4.5595,-4.5279,-4.5279,-4.5338,-4.5837,-4.5899,-4.5942,-4.5548,-4.5555,-4.556,-4.5834,0,-4.4925,-4.5131,-4.5083,-4.5287,-4.5377,-4.5278,-4.5382,-4.5413,-4.5404,-4.5479,-4.5469,-4.5556,-4.5449,-4.5472,-4.5557,-4.555,-4.5695,-4.553,-4.5641,-4.5646,-4.5637,-4.5989,-4.6055,-4.6312,-4.5868,-4.5874,-4.5878,0,-4.527,-4.5326,-4.5539,-4.5554,-4.559,-4.5685,-4.5747,-4.582,-4.5853,-4.584,-4.5882,-4.5824,-4.5942,-4.5809,-4.5972,-4.5861,-4.5903,-4.5907,-4.5915,-4.5925,-4.5777,-4.6009,-4.6393,-4.6432,-4.5933,-4.5928,-4.5924,0,-4.5532,-4.566,-4.5803,-4.5828,-4.5849,-4.5918,-4.593,-4.5954,-4.6001,-4.6055,-4.6085,-4.6153,-4.6191,-4.6245,-4.6207,-4.6113,-4.6377,-4.624,-4.637,-4.6371,-4.6431,-4.6428,-4.6829,-4.6457,-4.6456,-4.6456,-4.6455,0,-4.5841,-4.5976,-4.5921,-4.601,-4.6157,-4.61,-4.6247,-4.6247,-4.627,-4.6357,-4.6275,-4.6358,-4.6301,-4.638,-4.6351,-4.649,-4.6508,-4.6501,-4.6492,-4.6509,-4.6511,-4.6538,-4.6519,-4.6466,-4.6464,-4.6462,-4.646,0,-4.6159,-4.6128,-4.6278,-4.6285,-4.6289,-4.6398,-4.6404,-4.6486,-4.647,-4.6581,-4.6604,-4.6579,-4.6668,-4.6634,-4.6728,-4.6708,-4.6887,-4.6853,-4.6876,-4.6868,-4.7,-4.6989,-4.7433,-4.7488,-4.708,-4.7084,-4.7088,0,-4.6359,-4.646,-4.6477,-4.6529,-4.6547,-4.6632,-4.6678,-4.6625,-4.6677,-4.672,-4.6798,-4.6878,-4.6941,-4.7087,-4.7077,-4.7149,-4.7117,-4.7268,-4.7128,-4.7142,-4.7121,-4.7116,-4.7126,-4.7297,-4.7302,-4.7305,-4.7309,0,-4.6718,-4.6697,-4.6767,-4.6832,-4.689,-4.6939,-4.698,-4.7027,-4.6976,-4.7039,-4.7127,-4.7175,-4.7271,-4.7352,-4.7416,-4.7428,-4.7361,-4.7352,-4.7386,-4.7406,-4.7415,-4.7413,-4.6954,-4.7343,-4.7339,-4.7337,-4.7335,-4.7334,-4.6984,-4.7069,-4.7094,-4.7174,-4.7199,-4.7239,-4.7317,-4.731,-4.7382,-4.7455,-4.7419,-4.7523,-4.7551,-4.7629,-4.765,-4.773,-4.7672,-4.7721,-4.7734,-4.7747,-4.7764,-4.7401,-4.7742,-4.7741,-4.774,-4.7739,-4.7738,0,-4.7339,-4.735,-4.7424,-4.7484,-4.7547,-4.7476,-4.7518,-4.7576,-4.7667,-4.7699,-4.7761,-4.7863,-4.7941,-4.7937,-4.8009,-4.8074,-4.8045,-4.8095,-4.8091,-4.8095,-4.7812,-4.7776,-4.8118,-4.8118,-4.8117,-4.8117,-4.8117,-4.8117,-4.7531,-4.7671,-4.7653,-4.7804,-4.7813,-4.7913,-4.7943,-4.7979,-4.8004,-4.8121,-4.8185,-4.8181,-4.8199,-4.8271,-4.834,-4.8337,-4.8368,-4.843,-4.8415,-4.8152,-4.8115,-4.8079,-4.8044,-4.8437,-4.8437,-4.8691,-4.8693,-4.8695]},{"header":{"parameterUnit":"m.s-1","parameterCategory":1,"la1":30.2991,"la2":30.254,"lo1":-89.0895,"lo2":-89.0444,"dy":0.0017,"dx":0.0017,"nx":28,"ny":28,"refTime":"2024-12-13T03:00:00:Z","depth":0,"parameterNumber":3,"parameterNumberName":"V-component_of_WINDS"},"data":[0,0,0,0,0,0,0,0,0,0,0,0,0,0,0,0,0,0,0,0,0,0,0,0,0,0,0,0,0,0,0,0,0,0,0,0,0,0,0,0,0,0,0,0,0,0,0,0,0,0,0,0,0,0,0,0,0,0,-2.3849,-2.3849,0,-2.3858,-2.3858,-2.3858,-2.3827,-2.3826,-2.3825,-2.3824,-2.3833,-2.3834,-2.3835,0,0,0,0,0,0,0,0,0,0,0,0,0,-2.3804,-2.3805,-2.3849,-2.3849,-2.3849,-2.3858,-2.3858,-2.3858,-2.3827,-2.3826,-2.3825,-2.3824,-2.3833,-2.3834,-2.3835,0,0,0,0,0,0,0,0,0,0,0,0,0,-2.3819,-2.3805,-2.3849,-2.3835,-2.3834,-2.3858,-2.3858,-2.3858,-2.3827,-2.3826,-2.3824,-2.3823,-2.3832,-2.3834,-2.3835,-2.3874,0,0,-2.3841,-2.3841,0,0,0,0,0,0,0,0,-2.3818,-2.3821,-2.3837,-2.3836,-2.3835,-2.384,-2.3845,-2.3863,-2.3828,-2.383,-2.3824,-2.3823,-2.3836,-2.3838,-2.3842,-2.3874,-2.3875,-2.3841,-2.3842,-2.3842,-2.3843,0,0,0,0,0,0,0,-2.3817,-2.382,-2.3852,-2.3837,-2.3836,-2.3827,-2.3828,-2.3849,-2.3841,-2.3829,-2.3827,-2.3829,-2.3836,-2.3841,-2.3842,-2.3875,-2.3841,-2.3842,-2.3843,-2.3844,-2.3936,-2.3937,0,0,0,0,0,0,-2.3818,-2.382,-2.3852,-2.3853,-2.3823,-2.3829,-2.383,-2.384,-2.384,-2.3839,-2.383,-2.3827,-2.3839,-2.384,-2.3843,-2.3886,-2.3842,-2.3844,-2.3845,-2.3935,-2.3936,-2.3938,0,0,0,0,0,0,-2.3817,-2.3821,-2.3852,-2.3836,-2.3839,-2.3832,-2.3843,-2.384,-2.3846,-2.3841,-2.3839,-2.3837,-2.3838,-2.384,-2.3866,-2.3886,-2.3845,-2.3846,-2.3933,-2.3935,-2.3937,-2.3974,0,0,0,0,0,0,-2.3816,-2.3821,-2.3836,-2.3836,-2.384,-2.3875,-2.3844,-2.3842,-2.3849,-2.3845,-2.3847,-2.3846,-2.3837,-2.3863,-2.3867,-2.3887,-2.3848,-2.3931,-2.3934,-2.3936,-2.3971,-2.3977,-2.3982,0,0,0,0,0,-2.3815,-2.3847,-2.3837,-2.3841,-2.3858,-2.3877,-2.3879,-2.3868,-2.3851,-2.3865,-2.3861,-2.3846,-2.3883,-2.3866,-2.3871,-2.3891,-2.393,-2.3933,-2.3936,-2.3968,-2.3976,-2.3982,0,0,0,0,0,0,-2.385,-2.3846,-2.3836,-2.3869,-2.3873,-2.3871,-2.389,-2.3876,-2.3886,-2.3882,-2.3868,-2.3869,-2.3896,-2.3896,-2.3878,-2.3927,-2.3903,-2.3908,-2.3926,-2.3933,-2.3939,-2.3938,-2.3849,0,0,0,0,0,-2.3861,-2.3877,-2.3873,-2.3902,-2.3905,-2.3897,-2.3905,-2.3896,-2.39,-2.3901,-2.39,-2.3904,-2.3916,-2.3925,-2.3936,-2.3971,-2.397,-2.3987,-2.3993,-2.3997,-2.4001,-2.4017,-2.4024,-2.3949,-2.3949,-2.3949,0,0,-2.3886,-2.3886,-2.3896,-2.3909,-2.3912,-2.3927,-2.3899,-2.3917,-2.3928,-2.3904,-2.3927,-2.3927,-2.393,-2.396,-2.3973,-2.3961,-2.4022,-2.4002,-2.4005,-2.4006,-2.4021,-2.4029,-2.4035,-2.3951,-2.395,-2.395,0,0,-2.3937,-2.3939,-2.3963,-2.3966,-2.3969,-2.3963,-2.3969,-2.3969,-2.3967,-2.399,-2.3972,-2.3985,-2.4007,-2.401,-2.4014,-2.4065,-2.405,-2.4069,-2.4099,-2.4115,-2.4121,-2.4126,-2.4143,-2.4149,-2.4073,-2.4073,-2.4073,0,-2.3966,-2.3989,-2.3977,-2.3996,-2.4001,-2.398,-2.4003,-2.4006,-2.4013,-2.4017,-2.4004,-2.403,-2.4031,-2.406,-2.4072,-2.4077,-2.4082,-2.4069,-2.4121,-2.4126,-2.4131,-2.4147,-2.4153,-2.4075,-2.4075,-2.4075,-2.4075,0,-2.4024,-2.4041,-2.4059,-2.4066,-2.4074,-2.4095,-2.4085,-2.4094,-2.4084,-2.4079,-2.4103,-2.4103,-2.4113,-2.412,-2.4111,-2.4147,-2.4139,-2.4124,-2.4099,-2.4141,-2.4155,-2.4161,-2.4078,-2.4078,-2.4077,-2.4076,0,0,-2.4099,-2.4097,-2.4104,-2.4106,-2.4108,-2.412,-2.4139,-2.4149,-2.4156,-2.4162,-2.4177,-2.4195,-2.4181,-2.4186,-2.4176,-2.4191,-2.4229,-2.4173,-2.4173,-2.4182,-2.4267,-2.4278,-2.4285,-2.4219,-2.4221,-2.4221,-2.4266,0,-2.4148,-2.4181,-2.417,-2.4203,-2.4217,-2.4196,-2.4212,-2.4215,-2.4211,-2.4221,-2.4217,-2.423,-2.421,-2.4212,-2.4226,-2.4221,-2.4246,-2.4218,-2.4232,-2.4233,-2.4231,-2.4293,-2.4305,-2.4347,-2.4272,-2.4273,-2.4274,0,-2.421,-2.4217,-2.4252,-2.4249,-2.4254,-2.427,-2.4276,-2.4287,-2.4289,-2.4285,-2.429,-2.4277,-2.4295,-2.4271,-2.4295,-2.4277,-2.4282,-2.4281,-2.4282,-2.4282,-2.4255,-2.4294,-2.4361,-2.4367,-2.4283,-2.4282,-2.4282,0,-2.4259,-2.4277,-2.4299,-2.4302,-2.43,-2.4311,-2.4311,-2.4311,-2.4317,-2.4323,-2.4326,-2.4335,-2.4339,-2.4346,-2.4335,-2.4319,-2.436,-2.4336,-2.4356,-2.4357,-2.4365,-2.4365,-2.4433,-2.4371,-2.4371,-2.4371,-2.437,0,-2.4315,-2.4336,-2.4321,-2.4335,-2.4358,-2.4344,-2.4367,-2.4365,-2.4365,-2.4377,-2.436,-2.4372,-2.4358,-2.4368,-2.436,-2.438,-2.4383,-2.4379,-2.4377,-2.438,-2.4381,-2.4383,-2.4379,-2.4372,-2.4372,-2.4372,-2.4371,0,-2.4373,-2.4364,-2.4386,-2.4382,-2.4382,-2.4399,-2.4395,-2.4407,-2.4401,-2.4417,-2.442,-2.4411,-2.4422,-2.4412,-2.4423,-2.4418,-2.4444,-2.4438,-2.4443,-2.4441,-2.4462,-2.4459,-2.4533,-2.4541,-2.4475,-2.4476,-2.4476,0,-2.4409,-2.4424,-2.4421,-2.4428,-2.4428,-2.444,-2.4445,-2.4432,-2.4438,-2.4441,-2.4452,-2.4462,-2.4469,-2.4487,-2.4482,-2.449,-2.4483,-2.4508,-2.4484,-2.4486,-2.4482,-2.448,-2.4481,-2.4513,-2.4513,-2.4514,-2.4515,0,-2.4472,-2.4466,-2.4475,-2.4481,-2.4488,-2.4493,-2.4496,-2.4503,-2.4489,-2.4497,-2.4507,-2.4513,-2.4523,-2.4533,-2.4539,-2.4538,-2.4524,-2.4522,-2.4527,-2.453,-2.4532,-2.453,-2.4455,-2.4521,-2.452,-2.452,-2.4519,-2.4519,-2.4519,-2.4531,-2.453,-2.454,-2.4541,-2.4544,-2.4554,-2.4549,-2.4558,-2.4565,-2.4557,-2.457,-2.457,-2.4576,-2.4577,-2.4587,-2.4576,-2.4584,-2.4585,-2.4587,-2.4589,-2.4532,-2.4588,-2.4588,-2.4587,-2.4587,-2.4587,0,-2.458,-2.4578,-2.4587,-2.4591,-2.4599,-2.4584,-2.4587,-2.4594,-2.4605,-2.4606,-2.4613,-2.4625,-2.4633,-2.4628,-2.4635,-2.4644,-2.4637,-2.4646,-2.4645,-2.4644,-2.4599,-2.4593,-2.4651,-2.4651,-2.4651,-2.4651,-2.4651,-2.4651,-2.4613,-2.4632,-2.4626,-2.4645,-2.4643,-2.4655,-2.4657,-2.466,-2.466,-2.4674,-2.4681,-2.4677,-2.4675,-2.4682,-2.4689,-2.4687,-2.469,-2.4701,-2.4696,-2.4654,-2.4648,-2.4642,-2.4636,-2.4702,-2.4702,-2.474,-2.4741,-2.4741]}]]